• en France
  • Liste des pays
  • À 7 jours
  • Température de l'eau
  • Carte satellitaire
  • Carte météo
  • Widgets météo
  • user-avatar
    Se connecter

    Météo par heure à Belfast

    Ce jour, 18 Janvier, Jeudi

    Heure Température Précipitation Vent Pression Humidité
    00:00 +2°C° 1,4 mm 6 m/s 739 mmHg 96%
    01:00 +1°C° 0,1 mm 6 m/s 740 mmHg 95%
    02:00 +1°C° 0,1 mm 6 m/s 741 mmHg 95%
    03:00 +1°C° 0,1 mm 6 m/s 741 mmHg 94%
    04:00 +1°C° 0,2 mm 6 m/s 742 mmHg 94%
    05:00 0°C° 0,2 mm 7 m/s 743 mmHg 93%
    06:00 +2°C° 0,2 mm 7 m/s 744 mmHg 92%
    07:00 0°C° 0,1 mm 7 m/s 744 mmHg 91%
    08:00 0°C° 0,1 mm 7 m/s 744 mmHg 89%
    09:00 0°C° 0,1 mm 8 m/s 745 mmHg 88%
    10:00 0°C° 0,1 mm 8 m/s 745 mmHg 86%
    11:00 +1°C° 0,1 mm 8 m/s 746 mmHg 84%
    12:00 +1°C° 0,1 mm 8 m/s 747 mmHg 83%
    13:00 +1°C° 0 mm 8 m/s 747 mmHg 82%
    14:00 +1°C° 0 mm 8 m/s 748 mmHg 81%
    15:00 0°C° 0 mm 8 m/s 748 mmHg 81%
    16:00 0°C° 0 mm 7 m/s 748 mmHg 82%
    17:00 -1°C° 0 mm 7 m/s 749 mmHg 83%
    18:00 -1°C° 0 mm 7 m/s 749 mmHg 84%
    19:00 -2°C° 0 mm 7 m/s 749 mmHg 84%
    20:00 -2°C° 0 mm 7 m/s 750 mmHg 84%
    21:00 -2°C° 0 mm 7 m/s 750 mmHg 85%
    22:00 -2°C° 0 mm 7 m/s 750 mmHg 85%
    23:00 -2°C° 0 mm 7 m/s 750 mmHg 85%

    Demain, 19 Janvier, Vendredi

    Heure Température Précipitation Vent Pression Humidité
    00:00 -2°C° 0 mm 7 m/s 750 mmHg 84%
    01:00 -2°C° 0 mm 7 m/s 750 mmHg 85%
    02:00 -2°C° 0 mm 7 m/s 750 mmHg 85%
    03:00 -2°C° 0 mm 8 m/s 749 mmHg 85%
    04:00 -2°C° 0,1 mm 8 m/s 749 mmHg 85%
    05:00 -2°C° 0,1 mm 8 m/s 749 mmHg 85%
    06:00 -1°C° 0,1 mm 8 m/s 749 mmHg 86%
    07:00 -2°C° 0,2 mm 8 m/s 749 mmHg 84%
    08:00 -2°C° 0,2 mm 8 m/s 749 mmHg 81%
    09:00 -2°C° 0,2 mm 8 m/s 749 mmHg 79%
    10:00 -1°C° 0,1 mm 8 m/s 749 mmHg 79%
    11:00 -1°C° 0,1 mm 9 m/s 749 mmHg 78%
    12:00 0°C° 0,1 mm 10 m/s 749 mmHg 78%
    13:00 0°C° 0,2 mm 10 m/s 749 mmHg 77%
    14:00 0°C° 0,2 mm 9 m/s 749 mmHg 77%
    15:00 0°C° 0,2 mm 9 m/s 749 mmHg 76%
    16:00 0°C° 0,1 mm 9 m/s 750 mmHg 77%
    17:00 -1°C° 0,1 mm 9 m/s 750 mmHg 78%
    18:00 -1°C° 0,1 mm 9 m/s 750 mmHg 79%
    19:00 -1°C° 0 mm 8 m/s 751 mmHg 80%
    20:00 -1°C° 0 mm 8 m/s 751 mmHg 81%
    21:00 -1°C° 0 mm 8 m/s 751 mmHg 82%
    22:00 -1°C° 0 mm 8 m/s 751 mmHg 83%
    23:00 -2°C° 0 mm 8 m/s 751 mmHg 84%

    Après-demain, 20 Janvier, Samedi

    Heure Température Précipitation Vent Pression Humidité
    00:00 -2°C° 0 mm 8 m/s 752 mmHg 85%
    01:00 -2°C° 0 mm 7 m/s 752 mmHg 86%
    02:00 -2°C° 0 mm 7 m/s 752 mmHg 87%
    03:00 -3°C° 0 mm 6 m/s 751 mmHg 88%
    04:00 -3°C° 0 mm 6 m/s 752 mmHg 88%
    05:00 -3°C° 0 mm 6 m/s 752 mmHg 89%
    06:00 -2°C° 0 mm 5 m/s 752 mmHg 89%
    07:00 -2°C° 0 mm 5 m/s 752 mmHg 88%
    08:00 -1°C° 0 mm 5 m/s 753 mmHg 87%
    09:00 -1°C° 0 mm 5 m/s 753 mmHg 87%
    10:00 0°C° 0 mm 4 m/s 754 mmHg 86%
    11:00 +1°C° 0 mm 4 m/s 754 mmHg 85%
    12:00 +1°C° 0 mm 4 m/s 754 mmHg 85%
    13:00 +2°C° 0 mm 3 m/s 754 mmHg 86%
    14:00 +3°C° 0 mm 3 m/s 755 mmHg 87%
    15:00 +4°C° 0 mm 2 m/s 755 mmHg 87%
    16:00 +3°C° 0 mm 2 m/s 755 mmHg 88%
    17:00 +3°C° 0 mm 2 m/s 755 mmHg 88%
    18:00 +3°C° 0 mm 2 m/s 755 mmHg 88%
    19:00 +2°C° 0,3 mm 3 m/s 755 mmHg 87%
    20:00 +1°C° 0,3 mm 4 m/s 755 mmHg 87%
    21:00 +1°C° 0,3 mm 5 m/s 755 mmHg 86%
    22:00 +1°C° 0,8 mm 6 m/s 754 mmHg 88%
    23:00 0°C° 0,8 mm 7 m/s 754 mmHg 90%

    21 Janvier, Dimanche

    Heure Température Précipitation Vent Pression Humidité
    00:00 +1°C° 0,8 mm 8 m/s 753 mmHg 93%
    01:00 +1°C° 2,1 mm 8 m/s 752 mmHg 94%
    02:00 +1°C° 2,1 mm 8 m/s 751 mmHg 95%
    03:00 +2°C° 2,1 mm 8 m/s 751 mmHg 96%
    04:00 +2°C° 3,1 mm 8 m/s 750 mmHg 97%
    05:00 +4°C° 3,1 mm 7 m/s 749 mmHg 97%
    06:00 +5°C° 3,1 mm 6 m/s 748 mmHg 97%
    07:00 +7°C° 1,7 mm 6 m/s 749 mmHg 97%
    08:00 +8°C° 1,7 mm 5 m/s 749 mmHg 97%
    09:00 +8°C° 1,7 mm 5 m/s 749 mmHg 97%
    10:00 +9°C° 0,2 mm 5 m/s 749 mmHg 96%
    11:00 +9°C° 0,2 mm 6 m/s 750 mmHg 96%
    12:00 +10°C° 0,2 mm 6 m/s 750 mmHg 95%
    13:00 +9°C° 0,1 mm 6 m/s 751 mmHg 94%
    14:00 +8°C° 0,1 mm 6 m/s 751 mmHg 92%
    15:00 +8°C° 0,1 mm 6 m/s 752 mmHg 90%
    16:00 +7°C° 0 mm 5 m/s 753 mmHg 90%
    17:00 +6°C° 0 mm 5 m/s 754 mmHg 89%
    18:00 +5°C° 0 mm 4 m/s 754 mmHg 89%
    19:00 +5°C° 0 mm 4 m/s 755 mmHg 89%
    20:00 +4°C° 0 mm 4 m/s 755 mmHg 90%
    21:00 +4°C° 0 mm 4 m/s 755 mmHg 90%
    22:00 +4°C° 0 mm 3 m/s 756 mmHg 91%
    23:00 +4°C° 0 mm 3 m/s 756 mmHg 91%

    22 Janvier, Lundi

    Heure Température Précipitation Vent Pression Humidité
    00:00 +4°C° 0 mm 3 m/s 756 mmHg 91%
    01:00 +3°C° 0 mm 3 m/s 756 mmHg 92%
    02:00 +4°C° 0 mm 2 m/s 755 mmHg 92%
    03:00 +4°C° 0 mm 2 m/s 755 mmHg 92%
    04:00 +3°C° 0 mm 3 m/s 754 mmHg 92%
    05:00 +3°C° 0 mm 3 m/s 754 mmHg 92%
    06:00 +3°C° 0 mm 4 m/s 753 mmHg 93%
    07:00 +4°C° 1,1 mm 4 m/s 752 mmHg 94%
    08:00 +3°C° 1,1 mm 5 m/s 751 mmHg 95%
    09:00 +4°C° 1,1 mm 6 m/s 750 mmHg 96%
    10:00 +5°C° 1,5 mm 6 m/s 748 mmHg 96%
    11:00 +5°C° 1,5 mm 6 m/s 747 mmHg 97%
    12:00 +7°C° 1,5 mm 6 m/s 746 mmHg 97%
    13:00 +6°C° 1,3 mm 7 m/s 745 mmHg 96%
    14:00 +6°C° 1,3 mm 7 m/s 745 mmHg 95%
    15:00 +6°C° 1,3 mm 8 m/s 745 mmHg 94%
    16:00 +5°C° 0 mm 7 m/s 746 mmHg 95%
    17:00 +5°C° 0 mm 6 m/s 747 mmHg 95%
    18:00 +5°C° 0 mm 5 m/s 748 mmHg 95%
    19:00 +5°C° 0,1 mm 5 m/s 748 mmHg 94%
    20:00 +5°C° 0,1 mm 6 m/s 748 mmHg 94%
    21:00 +7°C° 0,1 mm 6 m/s 748 mmHg 93%
    22:00 +6°C° 0,1 mm 7 m/s 748 mmHg 91%
    23:00 +7°C° 0,1 mm 8 m/s 748 mmHg 89%

    23 Janvier, Mardi

    Heure Température Précipitation Vent Pression Humidité
    00:00 +7°C° 0,1 mm 9 m/s 748 mmHg 88%
    01:00 +6°C° 0 mm 8 m/s 749 mmHg 88%
    02:00 +5°C° 0 mm 8 m/s 750 mmHg 88%
    03:00 +4°C° 0 mm 8 m/s 751 mmHg 89%
    04:00 +4°C° 0 mm 7 m/s 752 mmHg 89%
    05:00 +4°C° 0 mm 7 m/s 752 mmHg 89%
    06:00 +4°C° 0 mm 7 m/s 753 mmHg 89%
    07:00 +4°C° 0 mm 7 m/s 753 mmHg 90%
    08:00 +4°C° 0 mm 7 m/s 754 mmHg 90%
    09:00 +4°C° 0 mm 7 m/s 754 mmHg 91%
    10:00 +5°C° 0 mm 8 m/s 754 mmHg 90%
    11:00 +6°C° 0 mm 8 m/s 753 mmHg 88%
    12:00 +7°C° 0 mm 9 m/s 753 mmHg 87%
    13:00 +8°C° 0,1 mm 9 m/s 752 mmHg 87%
    14:00 +8°C° 0,1 mm 10 m/s 751 mmHg 87%
    15:00 +9°C° 0,1 mm 11 m/s 750 mmHg 88%
    16:00 +9°C° 0,4 mm 11 m/s 749 mmHg 88%
    17:00 +9°C° 0,4 mm 12 m/s 749 mmHg 87%
    18:00 +9°C° 0,4 mm 12 m/s 748 mmHg 87%
    19:00 +9°C° 0,2 mm 11 m/s 748 mmHg 88%
    20:00 +8°C° 0,2 mm 10 m/s 748 mmHg 89%
    21:00 +8°C° 0,2 mm 9 m/s 748 mmHg 90%
    22:00 +7°C° 0,9 mm 8 m/s 747 mmHg 91%
    23:00 +8°C° 0,9 mm 7 m/s 747 mmHg 92%
    Voir plus